Mount Pleasant, UT

4:37 PM MDT on September 01, 2015 (GMT -0600)
Mount Pleasant | | Change Station
CLOSE
Current Station
Personal Weather Station
Location: Mount Pleasant, UT
Elevation: 5924 ft
Nearby Weather Stations

Elev 5924 ft 39.55 °N, 111.45 °W | Updated 1 minute ago

Partly Cloudy
Partly Cloudy
87.6 °F
Feels Like 84 °F
N
1.8
Wind Variable Wind from West
Gusts 6.9 mph

Today
High -- | Low -- °F
--% Chance of Precip.
Yesterday
High -- | Low -- °F
Precip. -- in
6:54 AM 7:57 PM
Waning Gibbous, 86% visible
Pressure 29.93 in
Visibility 10.0 miles
Clouds Few 11000 ft
Heat Index 84 °F
Dew Point 45 °F
Humidity 23%
Rainfall 0.19 in
Snow Depth Not available.
UV 6 out of 12
Pollen 9.00 out of 12
Air Quality Not available.
Flu Activity Not available.
METAR KPUC 012153Z AUTO 27005KT 10SM FEW110 24/08 A3014 RMK AO2 LTG DSNT E AND SE SLP133 T02390078
Pressure 29.93 in
Visibility 10.0 miles
Clouds Few 11000 ft
Heat Index 84 °F
Dew Point 45 °F
Humidity 23%
Rainfall 0.19 in
Snow Depth Not available.
UV 6 out of 12
Pollen 9.00 out of 12
Air Quality Not available.
Flu Activity Not available.
METAR KPUC 012153Z AUTO 27005KT 10SM FEW110 24/08 A3014 RMK AO2 LTG DSNT E AND SE SLP133 T02390078
Nowcast | as of 2:55 PM MDT on September 1, 2015

Scattered showers and thunderstorms will continue to develop this afternoon over portions of south central...east central and northern Utah...along with southwest Wyoming. The strongest storms at 250 PM were located just southwest of Eden...and across central Wayne County. Some of the stronger storms may produce locally heavy rain...small hail...gusty winds and dangerous lightning.

×

10-Day Weather Forecast

×

Almanac

Astronomy

Sep. 01, 2015 Rise Set
Actual Time
Civil Twilight
Nautical Twilight
Astronomical Twilight
Moon
Length of Visible Light
Length of Day
Tomorrow will be .
, % of the Moon is Illuminated

Today's Extremes

State Highs State Lows

Community

WunderPhotos

Upload Photos

1,851,634 photos uploaded!

WunderBlogs® & News

Nearby

Air Quality

  Air Quality AQ Index Pollutant
Not available.

Snow Depth

Station Depth Elevation

Earthquake Activity

City Distance Mag. Time & Date
Minimum magnitude displayed is 2.5.

Coastal Water Temperatures

Place Temperature

Stations

Nearby Weather Stations

Station Location Temp. Windchill Dew Point Humidity Wind Precip. Elev Updated Type